Port Angeles, WA
on Sunday, December 9, 2012

Sunday
Previous Day Next Day
Daily Summary
 ActualAverageRecord
Temperature
Mean Temperature °F °F  
Max Temperature 44°F 46°F 57°F (2014)
Min Temperature 37°F 36°F 21°F (1972)
Degree Days
Heating Degree Days 24    
Moisture
Dew Point 38°F   
Average Humidity 89    
Maximum Humidity 96    
Minimum Humidity 73    
Precipitation
Precipitation 0.00 in in in ()
Wind
Wind Speed 1 mph   
Max Wind Speed 6 mph   
Max Gust Speed mph   
Visibility 8 miles   
Events Rain   
Averages and records for this station are not official NWS values.
Key: T is trace of precipitation, MM is missing value
Source: NWS Daily Summary
Seasonal Weather Averages
Time(PST)TemperatureDew PointHumidity Pressure Visibility Wind DirectionWind SpeedGust SpeedPrecipitationEvents Conditions
12:53 AM 37.9°F 34.0°F 86% 30.33 in 10.0 miles Calm Calm - N/A   Overcast
1:53 AM 37.0°F 33.1°F 86% 30.33 in 10.0 miles Calm Calm - N/A   Overcast
2:53 AM 37.0°F 34.0°F 89% 30.33 in 10.0 miles Calm Calm - N/A   Overcast
3:53 AM 37.9°F 33.1°F 83% 30.33 in 10.0 miles SSW 3.5 mph - N/A   Overcast
4:53 AM 39.0°F 33.1°F 79% 30.32 in 10.0 miles WSW 5.8 mph - N/A   Overcast
5:53 AM 39.0°F 34.0°F 82% 30.32 in 10.0 miles Calm Calm - N/A   Overcast
6:53 AM 39.0°F 34.0°F 82% 30.31 in 10.0 miles SW 4.6 mph - 0.00 in   Overcast
7:53 AM 39.0°F 34.0°F 82% 30.31 in 10.0 miles WSW 4.6 mph - N/A   Overcast
8:53 AM 39.9°F 35.1°F 83% 30.31 in 10.0 miles SW 4.6 mph - 0.00 in Rain Light Rain
9:53 AM 43.0°F 36.0°F 76% 30.30 in 10.0 miles Calm Calm - 0.00 in   Overcast
10:53 AM 44.1°F 36.0°F 73% 30.29 in 10.0 miles Calm Calm - N/A   Overcast
11:43 AM 43.0°F 36.0°F 76% 30.29 in 10.0 miles WNW 3.5 mph - 0.00 in Rain Light Rain
11:53 AM 43.0°F 36.0°F 76% 30.30 in 10.0 miles West 3.5 mph - 0.00 in   Overcast
12:51 PM 42.8°F 37.4°F 81% 30.28 in 10.0 miles WNW 3.5 mph - 0.00 in Rain Light Rain
12:53 PM 43.0°F 37.0°F 80% 30.28 in 10.0 miles Variable 3.5 mph - 0.00 in Rain Light Rain
1:33 PM 42.1°F 39.0°F 89% 30.26 in 10.0 miles Calm Calm - 0.00 in   Overcast
1:53 PM 42.1°F 39.0°F 89% 30.26 in 5.0 miles Calm Calm - 0.00 in   Overcast
2:12 PM 41.0°F 39.0°F 93% 30.27 in 5.0 miles North 3.5 mph - 0.00 in Rain Light Rain
2:19 PM 41.0°F 39.0°F 93% 30.27 in 4.0 miles Calm Calm - 0.00 in Rain Light Rain
2:53 PM 42.1°F 39.9°F 92% 30.29 in 3.0 miles Calm Calm - 0.00 in Rain Light Rain
3:27 PM 42.1°F 39.9°F 92% 30.29 in 10.0 miles Calm Calm - 0.00 in   Overcast
3:53 PM 42.1°F 39.9°F 92% 30.30 in 10.0 miles Calm Calm - 0.00 in   Overcast
4:53 PM 41.0°F 39.0°F 93% 30.32 in 4.0 miles Calm Calm - 0.00 in Rain Light Rain
5:14 PM 41.0°F 39.0°F 93% 30.31 in 4.0 miles Calm Calm - 0.00 in Rain Light Rain
5:53 PM 41.0°F 39.0°F 93% 30.30 in 10.0 miles Calm Calm - 0.00 in   Overcast
6:02 PM 41.0°F 39.9°F 96% 30.29 in 10.0 miles Calm Calm - N/A   Overcast
6:20 PM 41.0°F 39.0°F 93% 30.30 in 10.0 miles Calm Calm - N/A   Overcast
6:26 PM 41.0°F 39.0°F 93% 30.31 in 10.0 miles Calm Calm - N/A   Overcast
6:35 PM 41.0°F 39.0°F 93% 30.31 in 10.0 miles Calm Calm - N/A   Overcast
6:48 PM 41.0°F 39.2°F 93% 30.32 in 10.0 miles SSW 3.5 mph - N/A   Overcast
6:53 PM 41.0°F 39.0°F 93% 30.32 in 10.0 miles SSW 3.5 mph - N/A   Overcast
7:53 PM 41.0°F 39.0°F 93% 30.35 in 9.0 miles WNW 3.5 mph - N/A   Overcast
8:09 PM 41.0°F 39.0°F 93% 30.34 in 4.0 miles SW 5.8 mph - N/A   Overcast
8:41 PM 41.0°F 39.0°F 93% 30.34 in 5.0 miles Calm Calm - N/A   Overcast
8:53 PM 41.0°F 39.0°F 93% 30.35 in 6.0 miles Calm Calm - N/A   Overcast
9:16 PM 41.0°F 39.9°F 96% 30.35 in 9.0 miles Calm Calm - N/A   Overcast
9:43 PM 41.0°F 39.9°F 96% 30.34 in 9.0 miles South 3.5 mph - N/A   Overcast
9:53 PM 41.0°F 39.9°F 96% 30.35 in 8.0 miles Calm Calm - N/A   Overcast
10:48 PM 39.2°F 37.4°F 93% 30.33 in 3.0 miles Calm Calm - N/A   Scattered Clouds
10:53 PM 39.0°F 37.0°F 93% 30.34 in 1.5 miles Calm Calm - N/A   Partly Cloudy
11:09 PM 39.0°F 37.0°F 93% 30.35 in 2.5 miles Calm Calm - N/A   Scattered Clouds
11:11 PM 39.0°F 37.0°F 93% 30.36 in 6.0 miles Calm Calm - N/A   Mostly Cloudy
11:53 PM 39.0°F 37.9°F 96% 30.37 in 10.0 miles Calm Calm - N/A   Overcast
Moon Phase
Dec. 09 Dec. 13 Dec. 20 Dec. 28 Jan. 04
Sunrise:07:52 AM (PST) Moon Rise:03:18 AM (PST)12/9
Sunset:04:20 PM (PST) Moon Set:01:42 PM (PST)12/9

Copyright © 2014 The Weather Underground, Inc.